Location: The Saddle
(36.8333°N, 80.3417°W)
Time: 18:50:12
(UTC-05:00)

Vanguard 2 Rocket - Pass Details

Date: 24 September 2023
Orbit: 553 x 3312 km, 32.9° (Epoch: 04 December)

Event Time Altitude Azimuth Distance (km) Brightness Sun altitude
Rises 20:32:12 0° 281° (WNW) 6,625 13.2 -16.1°
Reaches altitude 10° 20:38:47 10° 268° (W) 5,103 11.9 -17.4°
Maximum altitude 20:47:15 19° 230° (SW) 3,597 10.3 -19.0°
Drops below altitude 10° 20:53:29 10° 189° (S) 3,585 9.9 -20.2°
Sets 20:57:02 0° 171° (S) 4,138 10.0 -20.9°
